Location: Brivio
(45.7333°N, 9.4500°E)
Time: 17:14:52
(UTC+00:00)

ISS - Visible Passes

Search period start: 12 December 2019 00:00
Search period end: 22 December 2019 00:00
Orbit: 411 x 421 km, 51.6° (Epoch: 13 December)

Date Brightness Start Highest point End Pass type
(mag) Time Alt. Az. Time Alt. Az. Time Alt. Az.
13 Dec -0.5 16:38:32 10° W 16:40:35 15° SW 16:42:39 10° S visible
20 Dec -0.6 06:08:03 10° S 06:10:21 18° SE 06:12:40 10° E visible
21 Dec -0.2 05:21:12 10° SE 05:22:01 11° SE 05:22:50 10° ESE visible
